This demonstration page uses our WeatherBlox Daily Observations layout. Learn more.

40.92945, -100.16068

Hourly Observations for December 13, 2015

Temp ( °F °C ) Dew Point ( °F °C ) Humidity (%) Winds ( mph kmh ) Pressure ( in mb ) Visibility ( mi km ) Precip ( " mm )
12:15 am 00:15 Cloudy 33 0.5 31 -0.3 94 94 N 9 15 29.91 1013 10 16.0934 N/A
12:35 am 00:35 Cloudy 33 0.5 31 -0.3 94 94 N 9 15 29.94 1014 10 16.0934 N/A
12:55 am 00:55 Cloudy 33 0.4 31 -0.5 94 94 NNW 10 17 29.91 1013 10 16.0934 N/A
1:15 am 01:15 Cloudy with Mist and Fog 33 0.3 31 -0.3 96 96 NNW 10 17 29.91 1013 5 8.0467 N/A
1:35 am 01:35 Cloudy with Mist and Fog 32 0.2 31 -0.4 96 96 NNW 13 20 29.91 1013 3 4.82802 N/A
1:55 am 01:55 Cloudy with Mist and Fog 32 0.2 31 -0.3 96 96 NNW 15 24 29.91 1013 3 4.82802 N/A
2:15 am 02:15 Cloudy with Mist and Fog 32 0.1 31 -0.3 97 97 NNW 15 24 29.91 1013 3 4.82802 N/A
2:35 am 02:35 Cloudy with Mist and Fog 32 0.2 31 -0.3 96 96 NNW 14 22 29.91 1013 4 6.43736 N/A
2:55 am 02:55 Cloudy with Mist and Fog 32 0.1 31 -0.5 96 96 NNW 14 22 29.91 1013 4 6.43736 N/A
3:15 am 03:15 Cloudy with Mist and Fog 32 0 31 -0.5 96 96 N 15 24 29.88 1012 4 6.43736 N/A
3:35 am 03:35 Cloudy with Mist and Fog 32 0 31 -0.5 96 96 NNW 14 22 29.91 1013 4 6.43736 N/A
3:55 am 03:55 Cloudy 32 0 31 -0.7 95 95 N 17 28 29.91 1013 7 11.26538 N/A
4:15 am 04:15 Cloudy 32 0 31 -0.7 95 95 N 13 20 29.88 1012 10 16.0934 N/A
4:35 am 04:35 Cloudy 32 0 31 -0.8 94 94 N 13 20 29.85 1011 10 16.0934 N/A
4:55 am 04:55 Cloudy 32 0 31 -0.8 94 94 N 14 22 29.85 1011 10 16.0934 N/A
5:15 am 05:15 Cloudy 32 0 31 -0.8 94 94 N 10 17 29.83 1010 10 16.0934 N/A
5:35 am 05:35 Cloudy 32 0 31 -0.7 95 95 N 15 24 29.83 1010 10 16.0934 N/A
5:55 am 05:55 Cloudy 32 0 31 -0.7 95 95 N 16 26 29.8 1009 10 16.0934 0 0
6:15 am 06:15 Cloudy 32 0.1 31 -0.6 95 95 N 12 19 29.83 1010 10 16.0934 N/A
6:35 am 06:35 Cloudy 32 0 31 -0.6 96 96 N 16 26 29.83 1010 10 16.0934 N/A
6:55 am 06:55 Cloudy 32 0.1 31 -0.5 96 96 N 12 19 29.83 1010 10 16.0934 N/A
7:15 am 07:15 Cloudy 32 0.1 31 -0.5 96 96 N 13 20 29.83 1010 7 11.26538 N/A
7:35 am 07:35 Cloudy 32 0.2 31 -0.5 95 95 NNW 13 20 29.83 1010 7 11.26538 N/A
7:55 am 07:55 Cloudy 32 0.2 31 -0.4 96 96 NNW 10 17 29.85 1011 10 16.0934 N/A
8:15 am 08:15 Cloudy 32 0.2 31 -0.5 95 95 NNW 13 20 29.85 1011 10 16.0934 N/A
8:35 am 08:35 Cloudy 32 0.2 31 -0.5 95 95 N 14 22 29.88 1012 7 11.26538 N/A
8:55 am 08:55 Cloudy with Mist and Fog 32 0 31 -0.5 96 96 N 17 28 29.83 1010 5 8.0467 N/A
9:15 am 09:15 Cloudy with Mist and Fog 32 0 31 -0.5 96 96 NNW 16 26 29.83 1010 5 8.0467 N/A
9:35 am 09:35 Cloudy with Mist and Fog 32 0 31 -0.5 96 96 N 16 26 29.8 1009 5 8.0467 N/A
9:55 am 09:55 Cloudy with Mist and Fog 32 0 31 -0.5 96 96 NNW 18 30 29.8 1009 5 8.0467 N/A
10:15 am 10:15 Cloudy with Mist and Fog 32 0.1 31 -0.3 97 97 N 16 26 29.8 1009 5 8.0467 N/A
10:35 am 10:35 Cloudy 32 0.1 31 -0.3 97 97 N 18 30 29.83 1010 7 11.26538 N/A
10:55 am 10:55 Cloudy 32 0.2 32 -0.2 97 97 N 16 26 29.8 1009 7 11.26538 N/A
11:15 am 11:15 Cloudy 33 0.5 32 0 96 96 N 12 19 29.77 1008 10 16.0934 N/A
11:35 am 11:35 Cloudy 33 0.8 32 0 94 94 N 13 20 29.77 1008 10 16.0934 N/A
11:55 am 11:55 Cloudy 34 1 32 0.1 94 94 N 14 22 29.77 1008 10 16.0934 N/A
12:15 pm 12:15 Cloudy 34 1 32 0.1 94 94 N 13 20 29.77 1008 10 16.0934 N/A
12:35 pm 12:35 Cloudy 35 1.5 33 0.6 94 94 N 16 26 29.74 1007 10 16.0934 N/A
12:55 pm 12:55 Cloudy 35 1.7 33 0.7 93 93 N 21 33 29.71 1006 10 16.0934 N/A
1:15 pm 13:15 Cloudy 35 1.7 33 0.7 93 93 N 12 19 29.74 1007 10 16.0934 N/A
1:35 pm 13:35 Cloudy 36 2 33 0.8 92 92 N 12 19 29.74 1007 10 16.0934 N/A
1:55 pm 13:55 Cloudy 35 1.9 33 0.7 92 92 N 17 28 29.74 1007 10 16.0934 N/A
2:15 pm 14:15 Cloudy 35 1.8 33 0.7 93 93 N 18 30 29.71 1006 10 16.0934 N/A
2:35 pm 14:35 Cloudy 35 1.8 33 0.7 93 93 N 18 30 29.71 1006 10 16.0934 N/A
2:55 pm 14:55 Cloudy 35 1.8 33 0.8 93 93 N 16 26 29.71 1006 10 16.0934 N/A
3:15 pm 15:15 Cloudy 35 1.8 33 0.8 93 93 N 23 37 29.68 1005 10 16.0934 N/A
3:35 pm 15:35 Cloudy 35 1.9 34 0.9 93 93 N 18 30 29.65 1004 10 16.0934 N/A
3:55 pm 15:55 Cloudy 36 2 34 1 93 93 N 21 33 29.62 1003 10 16.0934 N/A
4:15 pm 16:15 Cloudy 35 1.9 34 0.9 93 93 N 21 33 29.59 1002 10 16.0934 N/A
4:35 pm 16:35 Cloudy 35 1.8 33 0.7 93 93 N 25 41 29.59 1002 10 16.0934 N/A
4:55 pm 16:55 Cloudy 36 2 34 1 93 93 N 24 39 29.59 1002 10 16.0934 N/A
5:15 pm 17:15 Cloudy 36 2 33 0.8 92 92 NNW 15 24 29.62 1003 10 16.0934 N/A
5:35 pm 17:35 Cloudy 36 2 33 0.7 91 91 NNW 17 28 29.65 1004 10 16.0934 N/A
5:55 pm 17:55 Cloudy 36 2 33 0.5 90 90 N 16 26 29.65 1004 10 16.0934 N/A
6:15 pm 18:15 Cloudy 35 1.8 33 0.5 91 91 N 20 31 29.65 1004 10 16.0934 N/A
6:35 pm 18:35 Cloudy 35 1.8 33 0.5 91 91 N 20 31 29.65 1004 10 16.0934 N/A
6:55 pm 18:55 Cloudy 35 1.7 33 0.3 91 91 N 21 33 29.62 1003 10 16.0934 N/A
7:15 pm 19:15 Cloudy 35 1.6 33 0.4 92 92 N 22 35 29.62 1003 10 16.0934 N/A
7:35 pm 19:35 Cloudy 35 1.7 33 0.5 92 92 N 21 33 29.62 1003 10 16.0934 N/A
7:55 pm 19:55 Cloudy 35 1.8 33 0.6 92 92 N 25 41 29.59 1002 10 16.0934 N/A
8:15 pm 20:15 Cloudy 35 1.8 33 0.5 91 91 N 25 41 29.59 1002 10 16.0934 N/A
8:35 pm 20:35 Cloudy 35 1.7 33 0.4 91 91 N 22 35 29.59 1002 10 16.0934 N/A
8:55 pm 20:55 Cloudy 35 1.6 32 0.2 91 91 N 20 31 29.59 1002 10 16.0934 N/A
9:15 pm 21:15 Cloudy 35 1.5 32 0.1 91 91 N 21 33 29.59 1002 10 16.0934 N/A
9:35 pm 21:35 Cloudy 35 1.5 32 0.2 91 91 NNW 22 35 29.59 1002 10 16.0934 N/A
9:55 pm 21:55 Cloudy 35 1.6 33 0.3 91 91 N 22 35 29.59 1002 10 16.0934 N/A
10:15 pm 22:15 Cloudy 35 1.7 33 0.3 91 91 NNW 22 35 29.53 1000 10 16.0934 N/A
10:35 pm 22:35 Cloudy 35 1.7 33 0.3 91 91 NNW 21 33 29.53 1000 10 16.0934 N/A
10:55 pm 22:55 Cloudy 35 1.8 33 0.4 91 91 N 21 33 29.53 1000 10 16.0934 N/A
11:15 pm 23:15 Cloudy with Light Rain 35 1.7 33 0.4 91 91 N 20 31 29.53 1000 10 16.0934 N/A
11:35 pm 23:35 Cloudy 36 2 33 0.5 90 90 N 18 30 29.5 999 10 16.0934 N/A
11:55 pm 23:55 Cloudy 36 2 33 0.5 90 90 N 20 31 29.5 999 10 16.0934 N/A

Powered by AerisWeather